Overview Statistics Trail Chart Weather Telemetry Raw packets
 

This is the latest recevied weather packets stored in our database for station/object IW1RID-3. If no packets are shown the sender has not sent any weather packets the latest 10 day(s).

<< 2 3 4 5 6 7 8 >>
Time Temp. Humidity Pressure Rain* Wind** Luminosity Snow
1788546048 26.67° C 71% 1075.8 hPa - - - -
1788544844 27.22° C 70% 1075.7 hPa - - - -
1788543639 27.22° C 67% 1075.7 hPa - - - -
1788542435 27.78° C 64% 1075.8 hPa - - - -
1788540025 30.56° C 58% 1076.3 hPa - - - -
1788538821 30.56° C 53% 1076.4 hPa - - - -
1788537615 30.56° C 56% 1076.6 hPa - - - -
1788536411 31.67° C 55% 1076.7 hPa - - - -
1788535221 31.11° C 58% 1077 hPa - - - -
1788534002 31.67° C 57% 1077.1 hPa - - - -
1788532798 30.56° C 60% 1077.1 hPa - - - -
1788531593 31.67° C 59% 1077.4 hPa - - - -
1788530389 31.11° C 60% 1077.5 hPa - - - -
1788529185 31.67° C 60% 1077.4 hPa - - - -
1788527980 31.67° C 60% 1077.5 hPa - - - -
1788526775 31.67° C 62% 1077.7 hPa - - - -
1788525571 30.56° C 65% 1077.9 hPa - - - -
1788524367 30.56° C 66% 1077.9 hPa - - - -
1788523162 29.44° C 71% 1077.7 hPa - - - -
1788521958 29.44° C 72% 1077.7 hPa - - - -
1788520771 28.33° C 76% 1077.8 hPa - - - -
1788519549 28.33° C 76% 1077.8 hPa - - - -
1788518345 27.78° C 77% 1078 hPa - - - -
1788517140 27.78° C 78% 1078 hPa - - - -
1788515936 27.78° C 80% 1078 hPa - - - -

* Rain since midnight (hover to see other rain measurements)
** Current wind speed in m/s (hover to see current wind gust speed)